Regional Weather Roundup
Issued by NWS Sioux Falls, SD

Home | Current Version | Previous Version | Graphics & Text | Print | Product List | Glossary On
Versions: 1 2 3 4 5 6 7 8 9 10 11 12 13 14 15 16 17 18 19 20 21 22 23 24 25 26 27 28 29 30 31 32 33 34 35 36 37 38 39 40 41 42 43 44 45 46 47 48 49 50
000
ASUS43 KFSD 031410
RWRFSD

WEATHER ROUNDUP FOR SE SOUTH DAKOTA/SW MINNESOTA/NW IOWA
NATIONAL WEATHER SERVICE SIOUX FALLS SD
800 AM CST TUE MAR 03 2015

NOTE: "FAIR" INDICATES FEW OR NO CLOUDS BELOW 12,000 FEET WITH NO
SIGNIFICANT WEATHER AND OR OBSTRUCTIONS TO VISIBILITY.


SDZ038>040-050-052>070-031500-
SOUTHEAST SOUTH DAKOTA

CITY           SKY/WX    TMP DP  RH WIND       PRES   REMARKS
CHAMBERLAIN    SNOW      17  14  87 N26G38    29.87R VSB 1/2 WCI  -2
HURON          LGT SNOW  18  15  88 N32G44    29.82R VSB 3/4 WCI  -2
MADISON        LGT SNOW  23  23 100 W8        29.69R WCI  14
MITCHELL       SNOW      21  18  88 N31G38    29.79R VSB 1/2 WCI   2
SIOUX FALLS    LGT SNOW  25  22  88 W5        29.70R VSB 1   WCI  19
WINNER         SNOW      18  12  77 N23G35    29.89R VSB 1/2 WCI   0
YANKTON        MOCLDY    28  25  86 W9        29.73R WCI  20
$$

MNZ071-072-080-081-089-090-097-098-031500-
SOUTHWEST MINNESOTA

CITY           SKY/WX    TMP DP  RH WIND       PRES   REMARKS
FAIRMONT       CLOUDY    25  19  80 S3        29.67S
JACKSON        LGT SNOW  25  21  86 CALM      29.66F VSB 1
LUVERNE        LGT SNOW  27  23  86 CALM      29.69R
MARSHALL       CLOUDY    23  19  86 CALM      29.69F VSB 1/2
MONTEVIDEO     SNOW      23  21  93 SW6       29.70F VSB 1/2 WCI  16
PIPESTONE      LGT SNOW  23  21  93 W3        29.66R VSB 1
REDWOOD FALLS  SNOW      23  21  92 CALM      29.70F VSB 1/4
TRACY          LGT SNOW  25  23  93 SW7       29.67F VSB 3/4 WCI  17
WINDOM         LGT SNOW  23  21  93 CALM      29.67S VSB 1
WORTHINGTON    CLOUDY    27  19  74 CALM      29.68S
$$

IAZ001>003-012>014-020>022-031-032-NEZ013-014-SDZ071-031500-
NORTHWEST IOWA

CITY           SKY/WX    TMP DP  RH WIND       PRES   REMARKS
CHEROKEE       CLOUDY    26  26 100 CALM      29.69R FOG
DENISON        FOG       30  30 100 SW7       29.66R VSB 1   WCI  23
ESTHERVILLE    LGT SNOW  23  22  96 CALM      29.66S FOG
LE MARS        CLOUDY    28  28 100 CALM      29.70R FOG
ORANGE CITY    LGT SNOW  28  25  86 W8        29.68R WCI  20
SHELDON        LGT SNOW  25  25 100 CALM      29.67R
SIOUX CITY     CLOUDY    29  27  92 NW5       29.70R FOG     WCI  24
SPENCER        LGT SNOW  26  22  84 CALM      29.68R FOG
STORM LAKE     FOG       27  27 100 SW5       29.68R VSB 3/4 WCI  21
$$

ABBREVIATIONS USED IN REMARKS
   TC - TEMPERATURE IN CELSIUS
  WCI - WIND CHILL INDEX
   HX - HEAT INDEX
  VSB - VISIBILITY



USA.gov is the U.S. government's official web portal to all federal, state and local government web resources and services.